Location: Berkeley
(37.8716°N, 122.2727°W)
Time: 14:47:03
(UTC-07:00)

Tiangong 2 - Visible Passes

Search period start: 28 March 2017 00:00
Search period end: 07 April 2017 00:00
Orbit: 374 x 383 km, 42.8° (Epoch: 27 March)

Date Brightness Start Highest point End Pass type
(mag) Time Alt. Az. Time Alt. Az. Time Alt. Az.
28 Mar 2.9 05:14:47 24° SE 05:14:47 24° SE 05:16:15 10° SE visible
29 Mar 3.2 05:49:06 14° SSW 05:49:06 14° SSW 05:50:03 10° S visible
01 Apr 2.8 20:49:40 10° SSW 20:51:15 20° S 20:51:15 20° S visible
02 Apr 2.7 21:24:02 10° WSW 21:25:39 28° WSW 21:25:39 28° WSW visible
03 Apr 1.6 20:22:45 10° SW 20:25:40 40° SSE 20:27:41 17° E visible
03 Apr 4.2 21:59:17 10° W 21:59:48 14° W 21:59:48 14° W visible
04 Apr 1.2 20:57:35 10° WSW 21:00:41 67° NNW 21:01:38 39° NE visible
05 Apr 2.7 21:32:59 10° WNW 21:35:25 33° NNW 21:35:25 33° NNW visible
06 Apr 1.9 20:31:12 10° W 20:34:13 47° NNW 20:36:56 12° ENE visible
06 Apr 4.3 22:08:22 10° WNW 22:09:03 15° NW 22:09:03 15° NW visible
